Location: Narrabri
(30.3170°S, 149.7830°E)
Time: 16:07:41
(UTC+11:00)

Envisat - Visible Passes

Search period start: 18 December 2017 00:00
Search period end: 28 December 2017 00:00
Orbit: 764 x 766 km, 98.2° (Epoch: 17 December)

Date Brightness Start Highest point End Pass type
(mag) Time Alt. Az. Time Alt. Az. Time Alt. Az.
18 Dec 2.9 21:22:15 10° SSE 21:27:25 84° ENE 21:32:30 10° N visible
19 Dec 3.7 20:46:01 10° SSE 20:50:39 33° E 20:55:13 10° NNE visible
19 Dec 5.3 22:25:32 10° SSW 22:29:23 22° WSW 22:33:11 10° WNW visible
20 Dec 3.8 21:47:57 10° S 21:52:55 51° WSW 21:57:50 10° NNW visible
21 Dec 3.0 21:11:11 10° SSE 21:16:17 64° E 21:21:20 10° N visible
21 Dec 5.9 22:53:00 10° SW 22:54:40 12° WSW 22:56:19 10° W visible
22 Dec 4.0 20:35:14 10° SE 20:39:29 26° E 20:43:40 10° NNE visible
22 Dec 4.9 22:14:03 10° SSW 22:18:21 28° WSW 22:22:37 10° NW visible
23 Dec 3.3 21:36:44 10° S 21:41:51 67° WSW 21:46:53 10° NNW visible
24 Dec 3.2 21:00:11 10° SSE 21:05:10 49° E 21:10:04 10° N visible
24 Dec 5.7 22:40:49 10° SSW 22:43:41 15° WSW 22:46:32 10° W visible
25 Dec 4.5 22:02:40 10° S 22:07:19 35° WSW 22:11:55 10° NW visible
26 Dec 3.0 21:25:36 10° SSE 21:30:45 87° WSW 21:35:51 10° NNW visible
27 Dec 3.6 20:49:15 10° SSE 20:54:00 37° E 20:58:41 10° NNE visible
27 Dec 5.5 22:29:05 10° SSW 22:32:41 20° WSW 22:36:16 10° WNW visible
